Weather History for KDMO - May, 2013

Change the Weather History Date:

Thursday, May 2, 2013

  Actual Average Record
Temperature  
Mean Temperature 44 °F 62 °F  
Max Temperature 53 °F 72 °F 89 °F (1952)
Min Temperature 35 °F 51 °F 28 °F (1989)
Degree Days  
Heating Degree Days 21 5  
Month to date heating degree days 21 10  
Since 1 July heating degree days 4620 4492  
Cooling Degree Days 0 1  
Month to date cooling degree days 3 2  
Year to date cooling degree days 29 36  
Moisture  
Dew Point 38 °F    
Average Humidity 84    
Maximum Humidity 92    
Minimum Humidity 76    
Precipitation  
Precipitation 0.43 in 0.17 in 2.80 in (1946)
Month to date precipitation 0.43 0.33  
Year to date precipitation 14.15 10.79  
Sea Level Pressure  
Sea Level Pressure 30.26 in    
Wind  
Wind Speed 16 mph (NNW)    
Max Wind Speed 25 mph    
Max Gust Speed 30 mph    
Visibility 7 miles    
Events Rain , Snow    
T = Trace of Precipitation, MM = Missing Value Source: NWS Daily Summary

Daily Weather History Graph

Daily Weather History Graph

Search for Another Location

Airport or City:

Trip Planner

Search our weather history database for the weather conditions in past years. The results will help you decide how hot, cold, wet, or windy it might be!

Date:

Astronomy

May. 02, 2013 Rise Set
Actual Time 6:13 AM CDT 8:06 PM CDT
Civil Twilight 5:44 AM CDT 8:35 PM CDT
Nautical Twilight 5:10 AM CDT 9:10 PM CDT
Astronomical Twilight 4:32 AM CDT 9:47 PM CDT
Moon 1:56 AM CDT (5/2) 1:00 PM CDT (5/2)
Length of Visible Light 14h 50m
Length of Day
13h 52m
Waning Gibbous, 47% of the Moon is Illuminated
May 2
Waning Gibbous
May 9
New
May 17
First Quarter
May 24
Full
May 31
Last Quarter

Hourly Weather History & Observations

Time (CDT) Temp. Windchill Dew Point Humidity Pressure Visibility Wind Dir Wind Speed Gust Speed Precip Events Conditions
12:01 AM 57.2 °F - 48.2 °F 72% 30.11 in 10.0 mi NW 20.7 mph 24.2 mph N/A   Overcast
12:53 AM 54.0 °F - 46.9 °F 77% 30.11 in 10.0 mi North 12.7 mph - N/A   Overcast
1:53 AM 51.1 °F - 46.0 °F 83% 30.13 in 10.0 mi NNW 11.5 mph - N/A   Clear
2:53 AM 48.9 °F - 43.0 °F 80% 30.14 in 10.0 mi North 17.3 mph - N/A   Clear
3:53 AM 48.0 °F - 42.1 °F 80% 30.15 in 10.0 mi NNW 13.8 mph - N/A   Overcast
4:15 AM 48.2 °F - 41.0 °F 76% 30.18 in 10.0 mi NNW 15.0 mph 24.2 mph N/A   Overcast
4:53 AM 46.9 °F - 41.0 °F 80% 30.20 in 10.0 mi NNW 13.8 mph - N/A   Overcast
5:53 AM 46.9 °F - 39.9 °F 77% 30.22 in 10.0 mi NNW 15.0 mph - N/A   Overcast
6:53 AM 46.0 °F 39.3 °F 39.0 °F 76% 30.23 in 10.0 mi North 16.1 mph 21.9 mph N/A   Overcast
7:53 AM 46.0 °F 38.5 °F 39.0 °F 76% 30.24 in 10.0 mi North 19.6 mph - N/A   Overcast
8:36 AM 46.4 °F 39.8 °F 39.2 °F 76% 30.24 in 10.0 mi North 16.1 mph - N/A   Overcast
8:53 AM 46.0 °F 39.9 °F 39.9 °F 79% 30.26 in 10.0 mi North 13.8 mph - N/A   Overcast
9:53 AM 46.0 °F 39.3 °F 39.9 °F 79% 30.27 in 10.0 mi North 16.1 mph - N/A   Overcast
10:53 AM 45.0 °F 37.9 °F 39.9 °F 82% 30.30 in 10.0 mi NNW 16.1 mph - N/A   Overcast
11:30 AM 44.6 °F 37.2 °F 41.0 °F 87% 30.30 in 3.0 mi NNW 17.3 mph 23.0 mph 0.00 in Rain Light Rain
11:53 AM 44.1 °F 36.8 °F 41.0 °F 89% 30.31 in 4.0 mi NNW 16.1 mph 25.3 mph 0.00 in Rain Light Rain
12:24 PM 44.6 °F 37.2 °F 39.2 °F 81% 30.29 in 10.0 mi North 17.3 mph - 0.00 in   Overcast
12:35 PM 44.6 °F 37.2 °F 39.2 °F 81% 30.28 in 8.0 mi NNW 17.3 mph 21.9 mph 0.00 in   Overcast
12:53 PM 43.0 °F 35.4 °F 39.9 °F 89% 30.30 in 6.0 mi NNW 16.1 mph 25.3 mph 0.00 in   Overcast
1:28 PM 44.6 °F 36.4 °F 39.2 °F 81% 30.29 in 10.0 mi North 20.7 mph 25.3 mph N/A   Overcast
1:53 PM 45.0 °F 37.4 °F 37.9 °F 76% 30.29 in 10.0 mi North 18.4 mph - N/A   Overcast
2:53 PM 44.1 °F 35.9 °F 37.0 °F 76% 30.29 in 10.0 mi North 19.6 mph 26.5 mph N/A   Overcast
3:16 PM 44.6 °F 38.1 °F 37.4 °F 76% 30.28 in 10.0 mi North 13.8 mph 25.3 mph N/A   Overcast
3:53 PM 43.0 °F 34.8 °F 37.0 °F 80% 30.29 in 10.0 mi North 18.4 mph 25.3 mph N/A   Overcast
4:51 PM 41.0 °F 32.5 °F 37.4 °F 87% 30.29 in 4.0 mi NW 17.3 mph 25.3 mph 0.02 in Rain Light Rain
4:53 PM 41.0 °F 33.5 °F 37.9 °F 89% 30.30 in 4.0 mi NNW 13.8 mph 25.3 mph 0.02 in Rain Light Rain
5:04 PM 41.0 °F 33.5 °F 37.4 °F 87% 30.29 in 3.0 mi NNW 13.8 mph 21.9 mph 0.00 in Rain Light Rain
5:22 PM 41.0 °F 32.8 °F 37.4 °F 87% 30.28 in 2.0 mi NNW 16.1 mph - 0.01 in Rain Light Rain
5:28 PM 41.0 °F 33.1 °F 37.4 °F 87% 30.28 in 1.8 mi NNW 15.0 mph - 0.01 in Rain Light Rain
5:33 PM 41.0 °F 32.8 °F 39.2 °F 93% 30.28 in 2.0 mi NNW 16.1 mph - 0.01 in Rain Light Rain
5:38 PM 41.0 °F 32.2 °F 39.2 °F 93% 30.27 in 3.0 mi NNW 18.4 mph - 0.01 in Rain Light Rain
5:53 PM 41.0 °F 33.1 °F 37.9 °F 89% 30.29 in 3.0 mi North 15.0 mph - 0.01 in Rain Light Rain
6:36 PM 39.2 °F 30.5 °F 37.4 °F 93% 30.28 in 10.0 mi North 16.1 mph 27.6 mph 0.01 in Rain Light Rain
6:43 PM 39.2 °F 29.3 °F 37.4 °F 93% 30.28 in 7.0 mi NNW 20.7 mph 24.2 mph 0.01 in Rain Light Rain
6:53 PM 39.0 °F 29.3 °F 37.0 °F 93% 30.29 in 4.0 mi NNW 19.6 mph - 0.01 in Rain Light Rain
7:39 PM 37.4 °F 27.8 °F 35.6 °F 93% 30.28 in 2.5 mi North 17.3 mph 28.8 mph 0.04 in Snow Light Snow
7:46 PM 37.4 °F 28.2 °F 35.6 °F 93% 30.28 in 3.0 mi North 16.1 mph - 0.05 in Rain Light Rain
7:53 PM 37.9 °F 28.2 °F 35.1 °F 89% 30.30 in 5.0 mi NNW 18.4 mph 24.2 mph 0.06 in Rain Rain
8:53 PM 36.0 °F 25.3 °F 34.0 °F 93% 30.30 in 7.0 mi NNW 19.6 mph - 0.12 in Rain Light Rain
9:12 PM 35.6 °F 25.2 °F 33.8 °F 93% 30.28 in 8.0 mi NNW 18.4 mph 26.5 mph 0.01 in Rain Light Rain
9:53 PM 36.0 °F 25.6 °F 34.0 °F 93% 30.29 in 4.0 mi NNW 18.4 mph 25.3 mph 0.05 in Rain Light Rain
10:20 PM 35.6 °F 25.9 °F 33.8 °F 93% 30.27 in 5.0 mi NNW 16.1 mph - 0.04 in Rain Rain
10:49 PM 35.6 °F 25.5 °F 33.8 °F 93% 30.25 in 5.0 mi NNW 17.3 mph - 0.08 in Rain Light Rain
10:53 PM 36.0 °F 26.0 °F 34.0 °F 93% 30.27 in 6.0 mi NNW 17.3 mph 26.5 mph 0.09 in Rain Light Rain
11:22 PM 35.6 °F 25.9 °F 33.8 °F 93% 30.25 in 8.0 mi NNW 16.1 mph 21.9 mph 0.02 in Rain Light Rain
11:53 PM 36.0 °F 26.3 °F 34.0 °F 93% 30.26 in 6.0 mi NNW 16.1 mph - 0.03 in Rain Light Rain